| time (UTC) | temp F | wind direction | speed MPH | gust MPH | rain 1hr in | rain 24hr in | rain mn in | humidity % | barometer mb |
| 20260505123433 | 59 | 191 | 2.0 | 5.0 | 0.00 | 0.00 | 0.00 | 63 | 1012.1 |
| 20260505122335 | 59 | 215 | 1.0 | 4.0 | 0.00 | 0.00 | 0.00 | 64 | 1012.0 |
| 20260505121335 | 59 | 184 | 1.0 | 2.0 | 0.00 | 0.00 | 0.00 | 62 | 1012.1 |
| 20260505120335 | 58 | 229 | 6.0 | 13.0 | 0.00 | 0.00 | 0.00 | 64 | 1012.1 |
| 20260505115334 | 58 | 151 | 1.0 | 2.0 | 0.00 | 0.00 | 0.00 | 65 | 1012.1 |
| 20260505114333 | 57 | 233 | 4.0 | 8.0 | 0.00 | 0.00 | 0.00 | 68 | 1012.3 |
| 20260505112334 | 55 | 236 | 0.0 | 2.0 | 0.00 | 0.00 | 0.00 | 70 | 1012.0 |
| 20260505110433 | 53 | 171 | 2.0 | 4.0 | 0.00 | 0.00 | 0.00 | 72 | 1011.9 |
| 20260505100335 | 52 | 171 | 0.0 | 2.0 | 0.00 | 0.00 | 0.00 | 70 | 1011.8 |
| 20260505095351 | 53 | 195 | 2.0 | 3.0 | 0.00 | 0.00 | 0.00 | 69 | 1011.8 |
| 20260505094433 | 53 | 187 | 2.0 | 4.0 | 0.00 | 0.00 | 0.00 | 68 | 1011.7 |
| 20260505094335 | 53 | 212 | 1.0 | 2.0 | 0.00 | 0.00 | 0.00 | 69 | 1011.8 |
| 20260505092334 | 53 | 158 | 0.0 | 1.0 | 0.00 | 0.00 | 0.00 | 68 | 1011.8 |
| 20260505091333 | 53 | 190 | 1.0 | 5.0 | 0.00 | 0.00 | 0.00 | 67 | 1011.9 |
| 20260505090432 | 53 | 184 | 2.0 | 4.0 | 0.00 | 0.00 | 0.00 | 67 | 1011.9 |
| 20260505085435 | 53 | 220 | 0.0 | 0.0 | 0.00 | 0.00 | 0.00 | 66 | 1011.8 |
| 20260505082533 | 54 | 185 | 0.0 | 2.0 | 0.00 | 0.00 | 0.00 | 61 | 1011.6 |
| 20260505081536 | 55 | 240 | 2.0 | 4.0 | 0.00 | 0.00 | 0.00 | 58 | 1011.7 |
| 20260505080533 | 57 | 197 | 2.0 | 4.0 | 0.00 | 0.00 | 0.00 | 57 | 1011.6 |
| 20260505080432 | 57 | 195 | 2.0 | 4.0 | 0.00 | 0.00 | 0.00 | 57 | 1011.7 |
| 20260505075532 | 58 | 202 | 2.0 | 3.0 | 0.00 | 0.00 | 0.00 | 56 | 1011.7 |
| 20260505074551 | 58 | 226 | 4.0 | 7.0 | 0.00 | 0.00 | 0.00 | 58 | 1011.6 |
| 20260505073535 | 56 | 247 | 2.0 | 5.0 | 0.00 | 0.00 | 0.00 | 65 | 1011.8 |
| 20260505072632 | 51 | 246 | 1.0 | 2.0 | 0.00 | 0.00 | 0.00 | 70 | 1011.7 |
| 20260505071634 | 51 | 187 | 2.0 | 2.0 | 0.00 | 0.00 | 0.00 | 70 | 1011.8 |
| 20260505070634 | 52 | 124 | 0.0 | 1.0 | 0.00 | 0.00 | 0.00 | 70 | 1011.7 |
| 20260505065633 | 51 | 160 | 1.0 | 2.0 | 0.00 | 0.00 | 0.00 | 70 | 1011.9 |
| 20260505064634 | 51 | 223 | 2.0 | 5.0 | 0.00 | 0.00 | 0.00 | 70 | 1012.0 |
| 20260505063633 | 51 | 131 | 3.0 | 4.0 | 0.00 | 0.00 | 0.00 | 70 | 1012.1 |
| 20260505062635 | 51 | 293 | 3.0 | 4.0 | 0.00 | 0.00 | 0.00 | 70 | 1012.3 |
| 20260505061649 | 51 | 270 | 0.0 | 0.0 | 0.00 | 0.00 | 0.00 | 68 | 1012.4 |
| 20260505055751 | 52 | 247 | 0.0 | 1.0 | 0.00 | 0.00 | 0.00 | 68 | 1012.5 |
| 20260505055651 | 52 | 247 | 2.0 | 3.0 | 0.00 | 0.00 | 0.00 | 69 | 1012.5 |
| 20260505054734 | 51 | 112 | 1.0 | 2.0 | 0.00 | 0.00 | 0.00 | 69 | 1012.5 |
| 20260505053734 | 52 | 112 | 2.0 | 2.0 | 0.00 | 0.00 | 0.00 | 68 | 1012.7 |
| 20260505052733 | 52 | 247 | 0.0 | 0.0 | 0.00 | 0.00 | 0.00 | 66 | 1012.7 |
| 20260505051734 | 52 | 202 | 0.0 | 2.0 | 0.00 | 0.00 | 0.00 | 67 | 1012.7 |
| 20260505050733 | 53 | 202 | 0.0 | 0.0 | 0.00 | 0.00 | 0.00 | 65 | 1012.9 |
| 20260505041733 | 54 | 190 | 1.0 | 3.0 | 0.00 | 0.00 | 0.00 | 62 | 1012.8 |
| 20260505040733 | 54 | 183 | 0.0 | 2.0 | 0.00 | 0.00 | 0.00 | 61 | 1012.6 |
| 20260505035741 | 55 | 209 | 2.0 | 4.0 | 0.00 | 0.00 | 0.00 | 61 | 1012.5 |
| 20260505034742 | 55 | 242 | 2.0 | 5.0 | 0.00 | 0.00 | 0.00 | 59 | 1012.5 |
| 20260505033838 | 55 | 230 | 1.0 | 3.0 | 0.00 | 0.00 | 0.00 | 59 | 1012.4 |
| 20260505032840 | 56 | 226 | 3.0 | 5.0 | 0.00 | 0.00 | 0.00 | 59 | 1012.4 |
| 20260505031838 | 56 | 221 | 6.0 | 10.0 | 0.00 | 0.00 | 0.00 | 58 | 1012.4 |
| 20260505030741 | 56 | 186 | 2.0 | 6.0 | 0.00 | 0.00 | 0.00 | 57 | 1012.4 |
| 20260505025740 | 57 | 208 | 4.0 | 6.0 | 0.00 | 0.00 | 0.00 | 56 | 1012.4 |
| 20260505024741 | 57 | 242 | 1.0 | 4.0 | 0.00 | 0.00 | 0.00 | 56 | 1012.4 |
| 20260505023741 | 57 | 160 | 2.0 | 4.0 | 0.00 | 0.00 | 0.00 | 55 | 1012.4 |
| 20260505022755 | 58 | 239 | 6.0 | 10.0 | 0.00 | 0.00 | 0.00 | 54 | 1012.4 |
| 20260505021838 | 58 | 247 | 3.0 | 5.0 | 0.00 | 0.00 | 0.00 | 54 | 1012.3 |
| 20260505021757 | 58 | 186 | 3.0 | 6.0 | 0.00 | 0.00 | 0.00 | 54 | 1012.3 |
| 20260505020739 | 58 | 244 | 5.0 | 10.0 | 0.00 | 0.00 | 0.00 | 53 | 1012.2 |
| 20260505020641 | 58 | 240 | 2.0 | 7.0 | 0.00 | 0.00 | 0.00 | 53 | 1012.2 |
| 20260505015641 | 58 | 246 | 0.0 | 3.0 | 0.00 | 0.00 | 0.00 | 51 | 1012.3 |
| 20260505014739 | 59 | 218 | 4.0 | 9.0 | 0.00 | 0.00 | 0.00 | 51 | 1012.2 |
| 20260505011937 | 60 | 245 | 4.0 | 7.0 | 0.00 | 0.00 | 0.00 | 47 | 1011.8 |
| 20260505011838 | 60 | 249 | 4.0 | 8.0 | 0.00 | 0.00 | 0.00 | 48 | 1011.8 |
| 20260505010839 | 59 | 208 | 2.0 | 4.0 | 0.00 | 0.00 | 0.00 | 46 | 1011.7 |
| 20260505005838 | 61 | 202 | 5.0 | 12.0 | 0.00 | 0.00 | 0.00 | 43 | 1011.6 |
| 20260505004839 | 61 | 236 | 2.0 | 3.0 | 0.00 | 0.00 | 0.00 | 43 | 1011.2 |
| 20260505004740 | 61 | 230 | 1.0 | 2.0 | 0.00 | 0.00 | 0.00 | 43 | 1011.0 |
| 20260505003839 | 61 | 221 | 1.0 | 4.0 | 0.00 | 0.00 | 0.00 | 42 | 1011.0 |
| 20260505002838 | 61 | 194 | 2.0 | 3.0 | 0.00 | 0.00 | 0.00 | 42 | 1011.0 |
| 20260505002739 | 61 | 247 | 2.0 | 3.0 | 0.00 | 0.00 | 0.00 | 42 | 1011.0 |
| 20260505002641 | 61 | 236 | 3.0 | 7.0 | 0.00 | 0.00 | 0.00 | 42 | 1011.0 |
| 20260505001738 | 62 | 232 | 1.0 | 3.0 | 0.00 | 0.00 | 0.00 | 41 | 1010.8 |
| 20260505000739 | 63 | 247 | 1.0 | 3.0 | 0.00 | 0.00 | 0.00 | 39 | 1010.5 |
| 20260505000640 | 63 | 237 | 2.0 | 4.0 | 0.00 | 0.00 | 0.00 | 39 | 1010.5 |
| 20260504235640 | 64 | 240 | 2.0 | 4.0 | 0.00 | 0.00 | 0.00 | 39 | 1010.4 |
| 20260504232638 | 65 | 221 | 2.0 | 5.0 | 0.00 | 0.00 | 0.00 | 36 | 1009.9 |
| 20260504230837 | 66 | 229 | 5.0 | 8.0 | 0.00 | 0.00 | 0.00 | 35 | 1009.6 |
| 20260504230740 | 66 | 240 | 6.0 | 10.0 | 0.00 | 0.00 | 0.00 | 34 | 1009.5 |
| 20260504225840 | 67 | 247 | 3.0 | 5.0 | 0.00 | 0.00 | 0.00 | 33 | 1009.5 |
| 20260504224842 | 67 | 183 | 1.0 | 7.0 | 0.00 | 0.00 | 0.00 | 34 | 1009.3 |
| 20260504221938 | 68 | 249 | 4.0 | 8.0 | 0.00 | 0.00 | 0.00 | 32 | 1008.9 |
| 20260504220939 | 68 | 250 | 7.0 | 12.0 | 0.00 | 0.00 | 0.00 | 32 | 1008.8 |
| 20260504215940 | 69 | 260 | 9.0 | 13.0 | 0.00 | 0.00 | 0.00 | 33 | 1008.8 |
| 20260504214938 | 68 | 227 | 3.0 | 7.0 | 0.00 | 0.00 | 0.00 | 33 | 1008.8 |
| 20260504213939 | 69 | 223 | 4.0 | 6.0 | 0.00 | 0.00 | 0.00 | 33 | 1008.9 |
| 20260504213838 | 69 | 254 | 6.0 | 9.0 | 0.00 | 0.00 | 0.00 | 33 | 1008.9 |
| 20260504213741 | 69 | 247 | 5.0 | 10.0 | 0.00 | 0.00 | 0.00 | 33 | 1009.0 |
| 20260504212740 | 68 | 265 | 6.0 | 10.0 | 0.00 | 0.00 | 0.00 | 33 | 1009.0 |
| 20260504212640 | 68 | 286 | 5.0 | 8.0 | 0.00 | 0.00 | 0.00 | 33 | 1009.1 |
| 20260504212538 | 68 | 200 | 5.0 | 9.0 | 0.00 | 0.00 | 0.00 | 33 | 1009.0 |
| 20260504211540 | 68 | 246 | 9.0 | 18.0 | 0.00 | 0.00 | 0.00 | 33 | 1009.1 |
| 20260504210555 | 68 | 242 | 5.0 | 9.0 | 0.00 | 0.00 | 0.00 | 33 | 1009.1 |
| 20260504205639 | 68 | 237 | 4.0 | 9.0 | 0.00 | 0.00 | 0.00 | 33 | 1009.1 |
| 20260504204640 | 68 | 216 | 8.0 | 12.0 | 0.00 | 0.00 | 0.00 | 33 | 1009.2 |
| 20260504203739 | 67 | 233 | 5.0 | 13.0 | 0.00 | 0.00 | 0.00 | 34 | 1009.3 |
| 20260504203639 | 67 | 231 | 7.0 | 11.0 | 0.00 | 0.00 | 0.00 | 34 | 1009.2 |
| 20260504202637 | 67 | 240 | 8.0 | 12.0 | 0.00 | 0.00 | 0.00 | 34 | 1009.3 |
| 20260504201638 | 66 | 249 | 9.0 | 15.0 | 0.00 | 0.00 | 0.00 | 34 | 1009.3 |
| 20260504200641 | 67 | 283 | 8.0 | 16.0 | 0.00 | 0.00 | 0.00 | 34 | 1009.2 |
| 20260504195639 | 66 | 232 | 10.0 | 16.0 | 0.00 | 0.00 | 0.00 | 34 | 1009.3 |
| 20260504194640 | 66 | 237 | 11.0 | 17.0 | 0.00 | 0.00 | 0.00 | 33 | 1009.6 |
| 20260504192638 | 68 | 249 | 6.0 | 11.0 | 0.00 | 0.00 | 0.00 | 33 | 1009.3 |
| 20260504191639 | 67 | 269 | 6.0 | 10.0 | 0.00 | 0.00 | 0.00 | 32 | 1009.2 |
| 20260504190637 | 67 | 220 | 8.0 | 13.0 | 0.00 | 0.00 | 0.00 | 34 | 1009.4 |
| 20260504185639 | 66 | 235 | 5.0 | 12.0 | 0.00 | 0.00 | 0.00 | 33 | 1009.3 |
| 20260504184638 | 66 | 226 | 9.0 | 21.0 | 0.00 | 0.00 | 0.00 | 33 | 1009.5 |
| 20260504184537 | 66 | 231 | 8.0 | 17.0 | 0.00 | 0.00 | 0.00 | 34 | 1009.5 |
| 20260504183440 | 66 | 232 | 6.0 | 9.0 | 0.00 | 0.00 | 0.00 | 34 | 1009.5 |
| 20260504182440 | 65 | 252 | 9.0 | 16.0 | 0.00 | 0.00 | 0.00 | 35 | 1009.5 |
| 20260504181454 | 65 | 223 | 7.0 | 13.0 | 0.00 | 0.00 | 0.00 | 34 | 1009.8 |
| 20260504180537 | 66 | 223 | 7.0 | 10.0 | 0.00 | 0.00 | 0.00 | 34 | 1009.7 |
| 20260504180457 | 66 | 227 | 5.0 | 11.0 | 0.00 | 0.00 | 0.00 | 34 | 1009.8 |
| 20260504175439 | 66 | 223 | 6.0 | 14.0 | 0.00 | 0.00 | 0.00 | 35 | 1009.6 |
| 20260504174538 | 65 | 234 | 7.0 | 15.0 | 0.00 | 0.00 | 0.00 | 35 | 1009.8 |
| 20260504173540 | 64 | 252 | 6.0 | 12.0 | 0.00 | 0.00 | 0.00 | 35 | 1010.0 |
| 20260504172538 | 64 | 259 | 8.0 | 14.0 | 0.00 | 0.00 | 0.00 | 33 | 1009.9 |
| 20260504171538 | 64 | 246 | 8.0 | 15.0 | 0.00 | 0.00 | 0.00 | 34 | 1009.9 |
| 20260504150440 | 60 | 262 | 3.0 | 7.0 | 0.00 | 0.00 | 0.00 | 40 | 1011.1 |
| 20260504140338 | 57 | 245 | 5.0 | 9.0 | 0.00 | 0.00 | 0.00 | 44 | 1011.6 |